Melrose Gunnery Range, NM

4:06 AM MDT on July 27, 2017 (GMT -0600)
Melrose Gunnery Range

Weather History for K4MR - January, 2014

Change the Weather History Date:

Tuesday, January 21, 2014

  Actual Average (KCVS) Record (KCVS)
Temperature  
Mean Temperature 42 °F -  
Max Temperature 57 °F 52 °F 71 °F (2009)
Min Temperature 26 °F 27 °F 16 °F (2008)
Degree Days  
Heating Degree Days 24    
Moisture  
Dew Point 13 °F    
Average Humidity 31    
Maximum Humidity 58    
Minimum Humidity 18    
Precipitation  
Precipitation 0.00 in - - ()
Sea Level Pressure  
Sea Level Pressure 30.28 in    
Wind  
Wind Speed 13 mph (SW)    
Max Wind Speed 24 mph    
Max Gust Speed 34 mph    
Visibility 12 miles    
Events      
Averages and records for this station are not official NWS values.
T = Trace of Precipitation, MM = Missing Value Source: NWS Daily Summary

Daily Weather History Graph

Daily Weather History Graph

Search for Another Location

Airport or City:

Trip Planner

Search our weather history database for the weather conditions in past years. The results will help you decide how hot, cold, wet, or windy it might be!

Date:

Astronomy

Jan. 21, 2014 Rise Set
Actual Time 6:59 AM MST 5:14 PM MST
Civil Twilight 6:32 AM MST 5:41 PM MST
Nautical Twilight 6:01 AM MST 6:11 PM MST
Astronomical Twilight 5:31 AM MST 6:41 PM MST
Moon 10:32 PM MST (1/21) 9:45 AM MST (1/21)
Length of Visible Light 11h 09m
Length of Day
10h 15m
Waning Gibbous, 74% of the Moon is Illuminated
Jan 21
Waning Gibbous
Jan 23
Last Quarter
Jan 30
New
Feb 6
First Quarter
Feb 14
Full

Hourly Weather History & Observations

Time (MST) Temp. Windchill Dew Point Humidity Pressure Visibility Wind Dir Wind Speed Gust Speed Precip Events Conditions
12:56 AM 31.5 °F 22.3 °F 13.6 °F 48% 30.44 in 12.0 mi West 11.5 mph - N/A   Clear
1:56 AM 33.6 °F 26.8 °F 13.8 °F 44% 30.43 in 12.0 mi West 8.1 mph - N/A   Clear
2:56 AM 31.1 °F 22.4 °F 13.5 °F 48% 30.44 in 12.0 mi West 10.4 mph - N/A   Clear
3:56 AM 31.6 °F 23.1 °F 13.6 °F 47% 30.44 in 12.0 mi West 10.4 mph - N/A   Clear
4:56 AM 30.0 °F 24.1 °F 14.2 °F 52% 30.45 in 12.0 mi WSW 5.8 mph - N/A   Clear
5:56 AM 26.1 °F 21.9 °F 13.1 °F 58% 30.48 in 12.0 mi NNE 3.5 mph - N/A   Clear
6:56 AM 31.3 °F 21.6 °F 14.5 °F 50% 30.45 in 12.0 mi SW 12.7 mph - N/A   Clear
7:56 AM 35.6 °F 30.7 °F 15.4 °F 44% 30.44 in 12.0 mi SW 5.8 mph - N/A   Clear
8:56 AM 41.2 °F 36.0 °F 14.7 °F 34% 30.45 in 12.0 mi SW 8.1 mph 16.1 mph N/A   Clear
9:56 AM 45.0 °F 37.4 °F 14.7 °F 30% 30.42 in 12.0 mi SSW 18.4 mph 26.5 mph N/A   Clear
10:56 AM 47.3 °F - 14.5 °F 27% 30.39 in 12.0 mi SSW 19.6 mph 33.4 mph N/A   Clear
11:56 AM 50.4 °F - 14.7 °F 24% 30.30 in 12.0 mi SSW 24.2 mph 33.4 mph N/A   Clear
12:56 PM 54.7 °F - 12.7 °F 19% 30.23 in 12.0 mi SSW 24.2 mph 34.5 mph N/A   Clear
1:56 PM 56.1 °F - 13.3 °F 18% 30.18 in 12.0 mi SSW 17.3 mph 26.5 mph N/A   Clear
2:56 PM 57.7 °F - 13.6 °F 18% 30.16 in 12.0 mi SSW 19.6 mph 26.5 mph N/A   Clear
3:56 PM 57.0 °F - 13.1 °F 18% 30.15 in 12.0 mi SSW 17.3 mph 27.6 mph N/A   Clear
4:56 PM 52.9 °F - 14.0 °F 21% 30.16 in 12.0 mi SW 12.7 mph - N/A   Clear
5:56 PM 50.5 °F - 14.2 °F 23% 30.17 in 12.0 mi SSW 13.8 mph 20.7 mph N/A   Clear
6:56 PM 47.7 °F - 14.0 °F 26% 30.15 in 12.0 mi SW 20.7 mph 26.5 mph N/A   Clear
7:56 PM 49.5 °F - 9.9 °F 20% 30.11 in 12.0 mi SW 23.0 mph 32.2 mph N/A   Clear
8:56 PM 47.8 °F - 8.4 °F 20% 30.10 in 12.0 mi SW 19.6 mph 25.3 mph N/A   Clear
9:56 PM 47.3 °F - 6.8 °F 19% 30.09 in 12.0 mi SW 19.6 mph 25.3 mph N/A   Clear
10:56 PM 45.0 °F 37.6 °F 6.8 °F 21% 30.07 in 12.0 mi SW 17.3 mph 26.5 mph N/A   Clear
11:56 PM 44.8 °F 37.1 °F 5.0 °F 20% 30.05 in 12.0 mi WSW 18.4 mph 25.3 mph N/A   Clear